Probability
2 3 4 2 1 1 4 6 6 4 2 1 0 0 0 0 0 0 0 0 0 0 0 0 0 0 0 0 0 0 0 0 0 0 0 0 0 0 0 0 0 0 0
7 7 7 6 5 5 9 12 14 13 10 5 3 2 1 0 0 0 0 0 0 0 0 0 0 0 0 0 0 0 0 0 0 0 0 0 0 0 0 0 0 0 0
15 13 10 10 11 13 18 26 31 32 26 20 13 8 4 1 1 0 0 0 0 0 0 0 0 0 0 0 0 0 0 0 0 0 0 0 0 0 0 0 0 0 0
18 15 13 14 16 18 27 40 49 50 46 39 28 17 8 4 2 1 0 0 0 0 0 0 0 0 0 0 0 0 0 0 0 0 0 0 0 0 0 0 0 0 0
15 14 15 18 18 20 31 46 57 60 57 52 41 26 14 7 4 2 1 1 0 0 0 0 0 0 0 0 0 0 0 0 0 0 0 0 0 0 0 0 0 0 0
10 10 13 18 18 20 31 46 58 62 61 56 46 30 17 9 5 3 2 1 0 0 0 0 0 0 0 0 0 0 0 0 0 0 0 0 0 0 0 0 0 0 0
7 6 8 12 15 20 31 45 56 60 60 55 43 28 17 10 7 5 3 1 0 0 0 0 0 0 0 0 0 0 0 0 0 0 0 0 0 0 0 0 0 0 0
6 5 4 5 8 16 29 41 49 54 54 47 34 22 14 9 7 6 3 1 0 0 0 0 0 0 0 0 0 0 0 0 0 0 0 0 1 2 1 0 0 0 0
4 4 2 1 3 9 19 29 35 39 41 35 24 15 10 7 6 4 2 1 0 0 0 0 0 0 0 0 0 0 0 0 0 0 0 1 2 3 2 1 1 0 0
3 2 0 0 1 3 7 14 20 23 24 21 15 10 6 4 3 2 1 0 0 0 0 0 0 0 0 0 0 0 0 0 0 0 1 2 3 3 3 3 2 1 0
4 2 0 0 0 0 1 4 8 11 11 9 7 4 2 1 1 1 0 0 0 0 0 0 0 0 0 0 0 0 0 0 0 0 1 3 3 3 3 3 2 1 0
5 2 0 1 2 2 1 1 2 3 4 3 1 1 0 0 0 0 0 0 0 0 0 0 0 0 0 0 0 0 0 0 0 0 2 5 4 1 1 2 2 1 1
4 2 0 1 3 4 4 3 2 2 2 1 0 0 0 1 1 0 0 0 0 0 0 0 0 0 0 0 0 0 0 0 0 0 2 4 3 1 0 0 1 1 1
3 2 0 1 3 5 6 5 4 4 4 3 2 2 1 2 2 2 2 1 0 0 0 0 0 0 0 0 0 0 0 0 0 0 3 4 4 3 2 1 0 0 0
2 1 1 1 2 4 6 6 5 4 4 4 4 3 3 3 3 3 4 4 2 1 2 1 1 1 1 0 0 0 0 0 0 1 3 6 7 7 7 5 3 1 1
1 1 1 2 2 2 3 4 4 3 3 4 5 5 6 6 7 7 9 10 9 8 10 8 6 5 4 1 0 0 0 0 0 0 2 5 8 10 10 9 5 3 1
1 2 2 2 2 2 2 3 3 2 3 6 9 12 13 13 15 17 17 20 23 26 29 26 21 17 13 7 3 2 1 1 1 1 1 2 5 7 9 11 9 5 2
5 6 7 5 5 7 8 8 8 8 11 17 21 22 21 21 26 32 34 37 44 49 51 47 41 35 28 19 12 7 6 6 5 3 1 2 3 3 7 12 14 9 5
13 14 14 13 14 16 18 22 25 26 28 33 36 35 35 36 41 49 53 54 57 61 60 56 52 48 39 29 18 13 11 10 9 7 5 4 3 3 6 10 12 9 7
24 23 21 22 27 32 37 42 45 45 45 48 50 51 52 54 56 60 62 59 57 56 52 49 49 45 39 30 19 13 11 10 9 9 9 8 6 4 4 6 6 6 6
35 32 30 31 39 48 57 62 63 59 56 56 57 58 61 60 59 58 57 53 48 44 39 37 37 33 28 23 18 14 11 8 7 7 7 7 5 3 2 3 3 3 3
40 39 39 42 48 57 65 72 74 68 61 57 55 56 56 54 51 46 43 40 36 32 28 24 22 19 16 14 14 15 13 9 5 3 2 2 2 1 1 1 1 1 1
43 44 48 52 57 60 65 70 73 69 61 54 49 44 42 39 35 30 26 24 23 22 19 15 12 10 8 7 8 10 10 9 5 1 0 0 0 0 0 0 0 0 0
44 46 51 56 59 61 65 68 69 64 57 47 37 26 21 20 17 14 12 12 12 12 11 9 7 7 6 5 4 3 3 3 2 1 0 0 0 0 0 0 0 0 0
35 39 43 46 48 51 57 61 60 55 45 33 21 12 9 8 8 6 5 5 5 5 5 5 5 5 5 4 2 0 0 0 0 0 0 0 0 0 0 0 0 0 0
24 27 31 34 35 38 45 50 51 44 34 22 13 8 6 5 6 5 4 3 3 3 3 3 4 4 3 2 1 0 0 0 0 0 0 0 0 0 0 0 0 0 0
Wind_Speed
14 18 18 13 12 13 15 17 17 17 17 17 16 15 14 13 12 12 12 11 11 11 11 12 12 12 12 12 12 12 11 11 11 12 12 12 12 12 12 11 10 12 13
17 19 18 13 13 14 15 17 17 17 17 17 16 15 14 13 12 11 11 11 11 11 11 11 11 11 11 11 11 10 10 10 10 11 12 12 12 11 10 6 5 12 11
18 19 19 13 13 14 15 17 17 18 17 17 16 15 14 13 12 11 11 11 10 11 11 11 11 11 11 10 10 9 9 9 8 9 10 9 11 9 9 8 13 13 11
18 18 19 16 13 15 15 16 17 18 18 17 16 16 15 13 12 12 12 11 10 10 10 11 10 10 10 9 9 8 8 8 7 7 7 7 9 10 9 9 10 11 11
17 17 18 17 15 15 16 16 17 18 18 17 16 15 14 13 12 11 11 11 10 10 10 10 10 9 9 8 8 7 7 7 5 8 6 7 8 10 9 9 9 10 10
18 18 19 16 16 15 16 16 17 17 17 16 16 15 14 13 12 11 11 10 10 10 10 9 9 8 8 7 6 6 5 5 9 4 6 6 8 9 8 9 9 9 8
18 17 20 15 15 15 15 15 15 16 15 14 14 14 13 12 11 10 10 10 9 9 9 9 8 7 6 6 5 4 3 4 8 4 5 5 9 10 8 8 8 8 8
17 17 19 16 16 15 15 14 14 13 13 13 12 12 12 11 10 10 10 9 9 9 9 8 7 7 6 5 4 3 2 6 6 3 4 6 10 9 8 8 8 7 7
17 17 18 18 16 15 12 12 12 12 12 12 12 12 11 11 10 10 9 8 8 8 8 7 7 6 5 4 3 2 2 5 8 4 5 5 10 8 9 8 8 7 7
16 16 16 17 17 16 15 14 13 12 12 12 12 12 12 11 10 9 9 8 7 7 7 7 6 5 4 3 3 2 3 7 9 6 5 8 10 9 9 9 8 7 7
15 15 15 16 15 15 15 15 14 13 11 12 11 11 11 10 10 10 7 8 6 6 5 5 5 5 5 7 5 4 7 8 7 4 3 12 10 10 10 9 9 8 8
16 16 15 15 15 14 11 12 11 11 11 11 10 11 9 6 4 4 11 6 5 5 5 5 5 7 10 7 9 9 7 7 5 5 5 12 10 11 10 10 9 9 8
17 15 15 14 14 13 10 10 7 7 8 9 9 9 6 6 5 5 6 8 8 8 7 8 9 7 6 3 3 6 5 6 4 4 7 12 10 11 11 11 10 10 9
17 16 15 15 13 12 10 9 8 7 7 7 8 9 7 5 5 4 4 5 5 5 4 5 4 4 5 5 6 6 6 6 4 3 7 11 9 10 11 11 11 11 10
15 15 14 13 12 10 8 7 8 7 7 7 6 8 7 6 6 5 4 3 5 3 5 5 5 4 5 6 6 6 6 5 5 4 6 11 9 9 10 11 10 10 10
13 14 13 12 12 10 8 7 6 7 6 6 6 8 8 6 5 5 5 5 5 4 3 4 4 4 5 4 5 4 5 4 4 4 3 9 9 7 8 8 9 9 8
12 12 12 12 11 10 10 9 7 6 6 6 6 7 8 7 6 5 5 5 4 3 3 4 4 4 4 4 4 3 3 4 2 3 4 4 7 8 6 5 5 6 6
11 11 11 10 11 11 9 8 6 6 6 5 5 5 7 7 6 5 5 4 3 3 3 3 3 4 3 4 3 2 2 2 3 3 3 3 3 4 7 6 4 4 4
8 9 11 11 11 11 10 8 7 5 5 4 4 4 4 5 5 4 3 2 2 3 3 3 3 3 3 3 3 2 2 2 2 3 2 3 2 2 3 7 5 4 3
6 8 9 10 10 10 9 7 6 6 5 4 4 3 3 3 3 3 2 2 3 3 2 3 2 2 2 2 3 2 2 1 2 1 2 2 2 3 3 2 4 4 4
4 6 8 8 9 9 8 8 7 7 5 4 4 4 4 4 4 4 2 2 2 3 3 4 3 3 2 1 2 3 2 2 1 1 1 2 2 1 1 2 2 1 3
2 2 5 7 7 9 7 6 5 4 3 3 3 3 3 3 3 3 2 2 2 2 3 3 3 3 2 2 2 3 4 4 3 1 1 1 0 1 1 1 1 0 1
5 3 0 2 5 7 7 6 5 4 3 3 4 3 3 4 3 2 2 1 1 2 2 3 4 5 3 2 1 2 3 4 3 3 1 1 1 1 0 1 1 1 0
8 6 5 3 0 2 4 6 8 6 4 4 4 4 5 6 5 4 4 2 2 1 1 0 1 1 3 3 2 1 2 3 1 2 3 2 1 0 1 1 0 1 1
11 10 8 8 6 4 2 3 5 4 5 5 6 7 7 6 6 6 6 5 4 4 4 4 4 3 2 1 2 1 1 1 1 2 2 2 1 1 0 0 1 1 1
12 12 11 12 12 11 9 7 7 8 9 9 8 8 7 6 6 9 8 8 7 6 6 6 6 7 5 5 3 3 1 1 1 1 2 2 2 2 1 1 2 1 1
Wind_Direction
159 145 138 145 144 144 146 147 146 145 144 144 144 142 140 136 131 128 125 122 119 116 113 111 111 111 111 112 112 112 113 115 116 115 114 114 113 115 121 135 151 116 120
150 143 139 143 143 142 144 146 145 144 144 144 143 142 140 136 132 129 126 124 122 119 117 115 115 115 115 116 116 116 118 121 123 124 126 123 118 117 123 127 72 109 131
146 143 147 142 142 141 142 143 143 144 144 144 143 142 140 136 133 129 128 126 124 123 121 119 117 116 115 115 115 116 117 120 126 141 162 137 121 122 119 101 99 123 133
145 148 153 141 142 139 139 140 142 144 144 143 142 142 140 137 134 132 131 130 128 125 123 121 119 117 116 114 113 112 111 113 129 188 179 122 127 123 128 121 124 133 135
146 150 143 146 144 141 140 141 143 143 144 143 142 142 140 138 135 134 133 131 129 126 123 121 119 118 116 115 114 114 116 124 169 231 108 111 115 128 136 134 135 135 137
150 151 144 152 147 144 144 143 143 144 144 143 142 141 139 138 136 136 134 131 129 127 124 121 119 117 117 116 116 118 129 160 220 150 112 129 124 136 144 143 140 139 141
152 151 148 153 148 148 148 146 145 144 143 142 141 140 138 136 136 135 133 131 130 127 123 121 120 118 117 117 115 119 143 214 257 126 135 135 115 140 155 153 148 146 148
153 151 146 153 154 154 152 148 146 144 142 140 139 138 136 135 135 135 134 133 131 127 124 123 123 121 119 117 116 121 159 255 235 142 145 125 117 155 161 158 157 158 157
156 152 154 161 161 159 154 151 147 144 142 141 139 139 138 138 138 139 136 135 132 130 129 129 129 128 126 125 126 137 186 264 263 169 163 130 133 163 165 163 163 165 163
161 157 158 165 165 167 165 159 155 150 147 146 146 147 144 144 149 149 157 140 140 139 138 137 136 137 142 147 156 180 210 241 241 192 174 129 145 169 169 170 170 170 169
166 159 166 167 169 173 169 160 165 160 154 156 159 155 168 178 168 173 148 140 154 151 149 146 148 158 184 181 185 201 225 239 213 215 172 124 160 178 176 176 177 177 177
170 168 173 169 171 175 167 162 176 177 169 188 173 174 193 180 182 177 125 159 169 171 174 169 175 198 226 202 179 199 226 234 239 201 145 138 170 183 181 182 183 182 183
170 175 176 173 176 174 170 171 179 182 172 192 183 183 191 185 184 192 172 173 188 196 203 174 203 220 228 243 247 221 236 241 232 213 145 153 178 188 187 185 187 188 188
173 180 180 174 179 184 178 176 181 184 180 189 182 196 187 197 201 199 208 198 195 204 216 229 229 221 244 236 242 248 226 237 236 221 137 159 181 193 192 190 191 192 193
176 180 182 181 177 184 186 189 190 193 188 189 187 197 200 201 206 200 210 219 232 220 209 231 245 232 242 230 233 240 247 237 243 229 152 160 179 191 194 193 193 196 198
179 182 179 187 179 185 191 198 195 198 196 199 198 197 202 215 209 213 213 211 229 230 245 247 243 242 244 253 244 238 251 240 217 235 198 156 167 178 185 189 190 194 195
181 184 183 189 185 191 200 203 202 203 197 206 202 203 206 217 209 220 227 217 224 226 226 246 250 252 248 238 239 242 244 251 213 214 225 187 166 159 157 168 174 186 196
186 183 188 193 189 192 205 207 209 210 202 209 206 204 211 223 219 227 234 232 226 231 229 232 243 246 247 248 237 232 229 211 211 204 214 203 187 163 143 127 134 158 179
186 185 190 199 196 195 199 205 214 208 209 210 207 214 207 219 223 231 246 258 254 250 247 243 228 247 250 256 245 226 242 242 217 205 212 216 171 192 160 129 131 131 156
174 184 193 197 199 197 196 202 208 205 199 199 198 190 185 194 204 219 227 245 255 249 237 238 230 251 273 262 258 234 248 250 249 216 225 208 196 208 212 177 183 153 142
163 181 193 200 195 196 197 199 199 201 193 185 185 170 173 181 189 192 205 199 224 236 233 226 222 212 232 250 241 232 217 222 224 220 247 239 190 212 232 210 230 215 155
93 188 200 202 198 201 201 204 204 191 184 172 151 130 143 150 166 170 182 197 203 220 230 223 202 202 204 215 238 240 229 206 194 196 236 228 245 215 217 159 68 42 302
46 35 337 212 204 204 197 187 171 154 160 160 135 120 110 114 107 107 133 168 186 208 216 214 215 208 197 191 254 251 245 238 170 150 137 73 47 7 314 61 82 59 343
33 30 31 37 42 190 187 186 178 175 171 145 125 114 96 78 76 77 77 75 72 62 68 106 221 214 197 180 146 35 2 356 269 186 170 149 113 66 40 355 30 73 42
34 36 38 44 39 45 84 151 163 142 114 110 110 103 85 67 60 68 73 71 68 64 59 59 58 55 58 93 118 117 92 48 309 261 224 194 195 186 114 330 342 340 32
39 40 42 48 45 43 52 58 82 98 101 103 98 93 80 66 53 55 63 63 60 60 59 61 61 64 60 61 57 56 48 20 349 314 274 253 252 234 229 255 240 233 272